Tillbaka till svenska Fidonet
English   Information   Debug  
FILM   0/18
FNEWS_PUBLISH   5034
FN_SYSOP   42247
FN_SYSOP_OLD1   71952
FTP_FIDO   0/2
FTSC_PUBLIC   0/13979
FUNNY   0/4886
GENEALOGY.EUR   0/71
GET_INFO   105
GOLDED   0/408
HAM   196/16786
HOLYSMOKE   0/6791
HOT_SITES   0/1
HTMLEDIT   0/71
HUB203   466
HUB_100   264
HUB_400   39
HUMOR   0/29
IC   0/2851
INTERNET   0/424
INTERUSER   0/3
IP_CONNECT   719
JAMNNTPD   0/233
JAMTLAND   0/47
KATTY_KORNER   0/41
LAN   0/16
LINUX-USER   0/19
LINUXHELP   0/1155
LINUX   0/22427
LINUX_BBS   0/957
mail   18.68
mail_fore_ok   249
MENSA   0/341
MODERATOR   0/102
MONTE   0/992
MOSCOW_OKLAHOMA   0/1245
MUFFIN   0/783
MUSIC   0/321
N203_STAT   938
N203_SYSCHAT   313
NET203   321
NET204   69
NET_DEV   0/10
NORD.ADMIN   0/101
NORD.CHAT   0/2572
NORD.FIDONET   189
NORD.HARDWARE   0/28
NORD.KULTUR   0/114
NORD.PROG   0/32
NORD.SOFTWARE   0/88
NORD.TEKNIK   0/58
NORD   0/453
OCCULT_CHAT   0/93
OS2BBS   0/787
OS2DOSBBS   0/580
OS2HW   0/42
OS2INET   0/37
OS2LAN   0/134
OS2PROG   0/36
OS2REXX   0/113
OS2USER-L   207
OS2   0/4835
OSDEBATE   0/18996
PASCAL   0/490
PERL   0/457
PHP   0/45
POINTS   0/405
POLITICS   0/29554
POL_INC   0/14731
PSION   103
R20_ADMIN   1133
R20_AMATORRADIO   0/2
R20_BEST_OF_FIDONET   16
R20_CHAT   0/897
R20_DEPP   0/3
R20_DEV   400
R20_ECHO2   1933
R20_ECHOPRES   0/35
R20_ESTAT   0/719
R20_FIDONETPROG...
...RAM.MYPOINT
  0/2
R20_FIDONETPROGRAM   0/22
R20_FIDONET   0/248
R20_FILEFIND   0/24
R20_FILEFOUND   0/22
R20_HIFI   0/3
R20_INFO2   3826
R20_INTERNET   0/12940
R20_INTRESSE   0/60
R20_INTR_KOM   0/99
R20_KANDIDAT.CHAT   42
R20_KANDIDAT   28
R20_KOM_DEV   112
R20_KONTROLL   0/13360
R20_KORSET   0/18
R20_LOKALTRAFIK   0/24
R20_MODERATOR   0/1852
R20_NC   76
R20_NET200   245
R20_NETWORK.OTH...
...ERNETS
  0/13
R20_OPERATIVSYS...
...TEM.LINUX
  0/44
R20_PROGRAMVAROR   0/1
R20_REC2NEC   534
R20_SFOSM   0/341
R20_SF   0/108
R20_SPRAK.ENGLISH   0/1
R20_SQUISH   107
R20_TEST   2
R20_WORST_OF_FIDONET   20
RAR   0/9
RA_MULTI   106
RA_UTIL   0/162
REGCON.EUR   0/2072
REGCON   0/13
SCIENCE   0/1206
SF   0/239
SHAREWARE_SUPPORT   0/5146
SHAREWRE   0/14
SIMPSONS   0/169
STATS_OLD1   0/2539.065
STATS_OLD2   0/2530
STATS_OLD3   0/2395.095
STATS_OLD4   0/1692.25
SURVIVOR   0/495
SYSOPS_CORNER   0/3
SYSOP   0/84
TAGLINES   0/112
TEAMOS2   0/4530
TECH   1700/2617
TEST.444   0/105
TRAPDOOR   0/19
TREK   0/755
TUB   0/290
UFO   0/40
UNIX   0/1316
USA_EURLINK   0/102
USR_MODEMS   0/1
VATICAN   0/2740
VIETNAM_VETS   0/14
VIRUS   0/378
VIRUS_INFO   0/201
VISUAL_BASIC   0/473
WHITEHOUSE   0/5187
WIN2000   0/101
WIN32   0/30
WIN95   0/4291
WIN95_OLD1   0/70272
WINDOWS   1077/1517
WWB_SYSOP   0/419
WWB_TECH   486/810
ZCC-PUBLIC   0/1
ZEC   4

 
4DOS   0/134
ABORTION   0/7
ALASKA_CHAT   0/506
ALLFIX_FILE   0/1313
ALLFIX_FILE_OLD1   0/7997
ALT_DOS   0/152
AMATEUR_RADIO   0/1039
AMIGASALE   0/14
AMIGA   0/331
AMIGA_INT   0/1
AMIGA_PROG   0/20
AMIGA_SYSOP   0/26
ANIME   0/15
ARGUS   0/924
ASCII_ART   0/340
ASIAN_LINK   0/651
ASTRONOMY   0/417
AUDIO   0/92
AUTOMOBILE_RACING   0/105
BABYLON5   0/17862
BAG   135
BATPOWER   0/361
BBBS.ENGLISH   0/382
BBSLAW   0/109
BBS_ADS   0/5290
BBS_INTERNET   0/507
BIBLE   0/3563
BINKD   0/1119
BINKLEY   0/215
BLUEWAVE   0/2173
CABLE_MODEMS   0/25
CBM   0/46
CDRECORD   0/66
CDROM   0/20
CLASSIC_COMPUTER   0/378
COMICS   0/15
CONSPRCY   0/899
COOKING   42382
COOKING_OLD1   0/24719
COOKING_OLD2   15349/40862
COOKING_OLD3   0/37489
COOKING_OLD4   17793/35496
COOKING_OLD5   9370
C_ECHO   0/189
C_PLUSPLUS   0/31
DIRTY_DOZEN   0/201
DOORGAMES   0/2388
DOS_INTERNET   0/196
duplikat   6102
ECHOLIST   12274/18295
EC_SUPPORT   0/318
ELECTRONICS   0/359
ELEKTRONIK.GER   1534
ENET.LINGUISTIC   0/13
ENET.POLITICS   0/4
ENET.SOFT   0/11701
ENET.SYSOP   34388
ENET.TALKS   0/32
ENGLISH_TUTOR   0/2000
EVOLUTION   0/1335
FDECHO   0/217
FDN_ANNOUNCE   0/7068
FIDONEWS   25217
FIDONEWS_OLD1   0/49742
FIDONEWS_OLD2   0/35949
FIDONEWS_OLD3   0/30874
FIDONEWS_OLD4   0/37224
FIDO_SYSOP   12977
FIDO_UTIL   0/180
FILEFIND   0/209
FILEGATE   0/212
Möte HAM, 16786 texter
 lista första sista föregående nästa
Text 307, 750 rader
Skriven 2005-03-25 02:15:29 av Amsat List (1:323/120.0)
Ärende: 
========
SB KEPS @ AMSAT  $ORB05083.O
Orbital Elements  05083.OSCAR

HR AMSAT ORBITAL ELEMENTS FOR OSCAR SATELLITES
FROM WA5QGD FORT WORTH,TX March 24, 2005
SEND SUBSCRIBE/UNSUBSCRIBE TO majordomo@amsat.org ONLY
BID: ORB05083.O
TO ALL RADIO AMATEURS BT

Satellite: AO-07
Catalog number: 07530
Epoch time:      05082.75910956
Element set:    0407
Inclination:      101.6405 deg
RA of node:       130.6497 deg
Eccentricity:    0.0012144
Arg of perigee:   041.0253 deg
Mean anomaly:     319.1731 deg
Mean motion:   12.53571002 rev/day
Decay rate:       -2.8e-07 rev/day^2
Epoch rev:           38894
Checksum:              269

Satellite: AO-10
Catalog number: 14129
Epoch time:      05082.26539306
Element set:     163
Inclination:      027.1705 deg
RA of node:       040.9049 deg
Eccentricity:    0.6036414
Arg of perigee:   175.1014 deg
Mean anomaly:     196.0295 deg
Mean motion:   02.05865282 rev/day
Decay rate:      -1.21e-06 rev/day^2
Epoch rev:           16376
Checksum:              276

Satellite: UO-11
Catalog number: 14781
Epoch time:      05082.84246279
Element set:     741
Inclination:      098.2000 deg
RA of node:       078.7019 deg
Eccentricity:    0.0007981
Arg of perigee:   272.8691 deg
Mean anomaly:     087.1544 deg
Mean motion:   14.79193216 rev/day
Decay rate:       4.64e-06 rev/day^2
Epoch rev:           12918
Checksum:              320

Satellite: RS-10/11
Catalog number: 18129
Epoch time:      05082.96450632
Element set:    0644
Inclination:      082.9240 deg
RA of node:       301.1801 deg
Eccentricity:    0.0010155
Arg of perigee:   265.3606 deg
Mean anomaly:     094.6388 deg
Mean motion:   13.72755858 rev/day
Decay rate:        4.0e-07 rev/day^2
Epoch rev:           88938
Checksum:              307

Satellite: FO-20
Catalog number: 20480
Epoch time:      05083.56811945
Element set:     856
Inclination:      099.0213 deg
RA of node:       273.8795 deg
Eccentricity:    0.0540838
Arg of perigee:   071.4812 deg
Mean anomaly:     294.4254 deg
Mean motion:   12.83345535 rev/day
Decay rate:       -1.7e-07 rev/day^2
Epoch rev:           70864
Checksum:              320

Satellite: RS-12/13
Catalog number: 21089
Epoch time:      05083.21478312
Element set:     870
Inclination:      082.9253 deg
RA of node:       333.9614 deg
Eccentricity:    0.0028088
Arg of perigee:   318.9083 deg
Mean anomaly:     040.9952 deg
Mean motion:   13.74448667 rev/day
Decay rate:        1.7e-07 rev/day^2
Epoch rev:           70882
Checksum:              325

Satellite: RS-15
Catalog number: 23439
Epoch time:      05082.90571417
Element set:    0871
Inclination:      064.8141 deg
RA of node:       245.4711 deg
Eccentricity:    0.0161657
Arg of perigee:   331.2248 deg
Mean anomaly:     027.9831 deg
Mean motion:   11.27551340 rev/day
Decay rate:       -3.9e-07 rev/day^2
Epoch rev:           42177
Checksum:              293

Satellite: FO-29
Catalog number: 24278
Epoch time:      05082.79260142
Element set:    0924
Inclination:      098.5566 deg
RA of node:       143.8535 deg
Eccentricity:    0.0351164
Arg of perigee:   037.7009 deg
Mean anomaly:     324.8190 deg
Mean motion:   13.52908753 rev/day
Decay rate:       -7.9e-07 rev/day^2
Epoch rev:           42464
Checksum:              327

Satellite: SO-33
Catalog number: 25509
Epoch time:      05083.73464187
Element set:     329
Inclination:      031.4288 deg
RA of node:       149.9434 deg
Eccentricity:    0.0355509
Arg of perigee:   147.9007 deg
Mean anomaly:     214.3794 deg
Mean motion:   14.27973244 rev/day
Decay rate:        5.1e-07 rev/day^2
Epoch rev:           33474
Checksum:              323

Satellite: AO-40
Catalog number: 26609
Epoch time:      05082.93154514
Element set:     516
Inclination:      008.2959 deg
RA of node:       313.6197 deg
Eccentricity:    0.7951582
Arg of perigee:   020.6709 deg
Mean anomaly:     358.7880 deg
Mean motion:   01.25588406 rev/day
Decay rate:      -2.95e-06 rev/day^2
Epoch rev:            2019
Checksum:              327

/EX
SB KEPS @ AMSAT  $ORB05083.D
Orbital Elements  05083.MICROS

HR AMSAT ORBITAL ELEMENTS FOR THE MICROSATS
FROM WA5QGD FORT WORTH,TX March 24, 2005
SEND SUBSCRIBE/UNSUBSCRIBE TO majordomo@amsat.org ONLY
BID: ORB05083.D
TO ALL RADIO AMATEURS BT

Satellite: UO-14
Catalog number: 20437
Epoch time:      05082.63391429
Element set:    0737
Inclination:      098.1974 deg
RA of node:       097.1313 deg
Eccentricity:    0.0011803
Arg of perigee:   088.7941 deg
Mean anomaly:     271.4605 deg
Mean motion:   14.31403572 rev/day
Decay rate:        7.6e-07 rev/day^2
Epoch rev:           79179
Checksum:              314

Satellite: AO-16
Catalog number: 20439
Epoch time:      05083.07352972
Element set:     425
Inclination:      098.2144 deg
RA of node:       112.7891 deg
Eccentricity:    0.0011996
Arg of perigee:   095.5817 deg
Mean anomaly:     264.6736 deg
Mean motion:   14.31665241 rev/day
Decay rate:        4.4e-07 rev/day^2
Epoch rev:           79191
Checksum:              318

Satellite: WO-18
Catalog number: 20441
Epoch time:      05082.38372777
Element set:    0620
Inclination:      098.2276 deg
RA of node:       116.4370 deg
Eccentricity:    0.0012697
Arg of perigee:   096.2876 deg
Mean anomaly:     263.9769 deg
Mean motion:   14.31739494 rev/day
Decay rate:        3.9e-07 rev/day^2
Epoch rev:           79187
Checksum:              348

Satellite: LO-19
Catalog number: 20442
Epoch time:      05083.66981157
Element set:     354
Inclination:      098.2354 deg
RA of node:       122.0308 deg
Eccentricity:    0.0012951
Arg of perigee:   091.9449 deg
Mean anomaly:     268.3227 deg
Mean motion:   14.31911459 rev/day
Decay rate:        3.7e-07 rev/day^2
Epoch rev:           79212
Checksum:              304

